Location: Newark
(42.7133°N, 87.7910°W)
Time: 09:49:20
(UTC+00:00)

Tiros 1 - Pass Details

Date: 20 September 2019
Orbit: 630 x 664 km, 48.4° (Epoch: 22 October)

Event Time Altitude Azimuth Distance (km) Brightness Sun altitude
Rises 20:40:54 0° 270° (W) 2,960 11.3 32.6°
Reaches altitude 10° 20:43:20 10° 277° (W) 2,044 10.5 32.2°
Maximum altitude 20:47:51 45° 351° (N) 881 8.0 31.5°
Drops below altitude 10° 20:52:20 10° 64° (ENE) 2,026 9.3 30.9°
Sets 20:54:44 0° 71° (ENE) 2,930 10.0 30.5°
